Claremore, OK

8:49 PM CDT on May 28, 2017 (GMT -0500)
Claremore Regional

Weather History for KGCM - April, 2014

Change the Weather History Date:

Sunday, April 6, 2014

  Actual Average (KTUL) Record (KTUL)
Temperature  
Mean Temperature 45 °F -  
Max Temperature 53 °F 71 °F 92 °F (1960)
Min Temperature 37 °F 46 °F 29 °F (1996)
Degree Days  
Heating Degree Days 20    
Moisture  
Dew Point 40 °F    
Average Humidity 74    
Maximum Humidity 100    
Minimum Humidity 50    
Precipitation  
Precipitation 0.05 in - - ()
Sea Level Pressure  
Sea Level Pressure 29.97 in    
Wind  
Wind Speed 7 mph (SE)    
Max Wind Speed 15 mph    
Max Gust Speed 20 mph    
Visibility 10 miles    
Events Rain    
Averages and records for this station are not official NWS values.
T = Trace of Precipitation, MM = Missing Value Source: NWS Daily Summary

Daily Weather History Graph

Daily Weather History Graph

Search for Another Location

Airport or City:

Trip Planner

Search our weather history database for the weather conditions in past years. The results will help you decide how hot, cold, wet, or windy it might be!

Date:

Astronomy

Apr. 06, 2014 Rise Set
Actual Time 7:00 AM CDT 7:48 PM CDT
Civil Twilight 6:34 AM CDT 8:14 PM CDT
Nautical Twilight 6:03 AM CDT 8:45 PM CDT
Astronomical Twilight 5:32 AM CDT 9:17 PM CDT
Moon 12:08 PM CDT (4/6) 1:39 AM CDT (4/6)
Length of Visible Light 13h 39m
Length of Day
12h 47m
Waxing Crescent, 44% of the Moon is Illuminated
Apr 6
Waxing Crescent
Apr 7
First Quarter
Apr 15
Full
Apr 22
Last Quarter
Apr 29
New

Hourly Weather History & Observations

Time (CDT) Temp. Windchill Dew Point Humidity Pressure Visibility Wind Dir Wind Speed Gust Speed Precip Events Conditions
12:15 AM 51.8 °F - 35.6 °F 54% 30.11 in 10.0 mi South 15.0 mph 18.4 mph N/A   Clear
12:35 AM 51.8 °F - 33.8 °F 50% 30.11 in 10.0 mi South 9.2 mph - N/A   Clear
12:55 AM 51.8 °F - 33.8 °F 50% 30.10 in 10.0 mi South 8.1 mph - N/A   Clear
1:15 AM 50.0 °F - 33.8 °F 54% 30.09 in 10.0 mi SE 8.1 mph - N/A   Clear
1:35 AM 50.0 °F - 35.6 °F 58% 30.10 in 10.0 mi SSE 9.2 mph - N/A   Clear
1:55 AM 50.0 °F - 35.6 °F 58% 30.08 in 10.0 mi SE 6.9 mph - N/A Rain Light Rain
2:15 AM 48.2 °F - 37.4 °F 66% 30.08 in 10.0 mi SSE 15.0 mph 19.6 mph N/A Rain Light Rain
2:35 AM 48.2 °F - 39.2 °F 71% 30.08 in 10.0 mi SSE 10.4 mph - N/A Rain Light Rain
2:55 AM 48.2 °F - 39.2 °F 71% 30.08 in 10.0 mi South 6.9 mph - N/A   Clear
3:15 AM 46.4 °F 42.9 °F 39.2 °F 76% 30.07 in 10.0 mi South 6.9 mph - N/A Rain Light Rain
3:35 AM 46.4 °F 41.9 °F 41.0 °F 81% 30.07 in 10.0 mi South 9.2 mph - N/A   Clear
3:55 AM 46.4 °F 42.4 °F 41.0 °F 81% 30.06 in 10.0 mi South 8.1 mph - N/A   Clear
4:15 AM 46.4 °F 42.4 °F 41.0 °F 81% 30.06 in 10.0 mi South 8.1 mph - N/A   Clear
4:35 AM 46.4 °F 43.5 °F 41.0 °F 81% 30.05 in 10.0 mi SSW 5.8 mph - N/A   Clear
4:55 AM 44.6 °F 40.2 °F 39.2 °F 81% 30.05 in 10.0 mi South 8.1 mph - N/A   Clear
5:15 AM 44.6 °F 42.2 °F 39.2 °F 81% 30.04 in 10.0 mi SSE 4.6 mph - N/A   Clear
5:35 AM 42.8 °F 41.1 °F 37.4 °F 81% 30.03 in 10.0 mi SSW 3.5 mph - N/A   Clear
5:55 AM 42.8 °F - 37.4 °F 81% 30.03 in 10.0 mi Calm Calm - N/A   Clear
6:15 AM 41.0 °F 39.0 °F 37.4 °F 87% 30.01 in 10.0 mi NE 3.5 mph - N/A   Clear
6:35 AM 41.0 °F 39.0 °F 37.4 °F 87% 30.01 in 10.0 mi NE 3.5 mph - N/A   Clear
6:55 AM 39.2 °F 37.0 °F 35.6 °F 87% 30.01 in 10.0 mi ENE 3.5 mph - N/A   Clear
7:15 AM 39.2 °F 37.0 °F 37.4 °F 93% 30.01 in 7.0 mi ENE 3.5 mph - N/A   Clear
7:35 AM 37.4 °F 33.8 °F 35.6 °F 93% 30.01 in 7.0 mi ENE 4.6 mph - N/A   Clear
7:55 AM 41.0 °F 38.0 °F 37.4 °F 87% 30.00 in 7.0 mi ENE 4.6 mph - N/A   Clear
8:15 AM 41.0 °F 38.0 °F 37.4 °F 87% 30.00 in 7.0 mi NNE 4.6 mph - N/A   Clear
8:35 AM 42.8 °F 41.1 °F 39.2 °F 87% 30.00 in 7.0 mi ENE 3.5 mph - N/A   Clear
8:55 AM 44.6 °F 43.1 °F 39.2 °F 81% 30.00 in 10.0 mi ENE 3.5 mph - N/A   Clear
9:15 AM 46.4 °F 44.3 °F 39.2 °F 76% 30.00 in 10.0 mi ENE 4.6 mph - N/A   Clear
9:35 AM 46.4 °F 42.4 °F 41.0 °F 81% 29.98 in 10.0 mi ENE 8.1 mph - N/A   Clear
9:55 AM 48.2 °F - 39.2 °F 71% 29.99 in 10.0 mi ENE 9.2 mph - N/A   Clear
10:15 AM 50.0 °F - 39.2 °F 66% 29.98 in 7.0 mi ENE 9.2 mph - N/A   Clear
10:35 AM 50.0 °F - 39.2 °F 66% 29.98 in 10.0 mi ENE 10.4 mph - N/A   Clear
10:55 AM 51.8 °F - 39.2 °F 62% 29.98 in 10.0 mi ENE 9.2 mph - N/A   Clear
11:15 AM 51.8 °F - 37.4 °F 58% 30.00 in 10.0 mi ENE 5.8 mph - N/A   Clear
11:35 AM 51.8 °F - 37.4 °F 58% 30.00 in 10.0 mi ENE 3.5 mph - N/A   Scattered Clouds
11:55 AM 53.6 °F - 39.2 °F 58% 29.95 in 10.0 mi NE 8.1 mph - N/A   Clear
12:15 PM 53.6 °F - 37.4 °F 54% 29.96 in 10.0 mi ENE 5.8 mph - N/A   Clear
12:35 PM 53.6 °F - 37.4 °F 54% 29.94 in 10.0 mi NE 8.1 mph - N/A   Scattered Clouds
12:55 PM 53.6 °F - 37.4 °F 54% 29.94 in 10.0 mi ENE 6.9 mph - N/A   Clear
1:15 PM 53.6 °F - 37.4 °F 54% 29.96 in 10.0 mi ESE 6.9 mph - N/A   Clear
1:35 PM 53.6 °F - 37.4 °F 54% 29.97 in 10.0 mi ESE 5.8 mph - N/A   Clear
1:55 PM 53.6 °F - 37.4 °F 54% 29.98 in 10.0 mi SSE 6.9 mph - N/A   Clear
2:15 PM 53.6 °F - 39.2 °F 58% 29.96 in 10.0 mi SE 4.6 mph - N/A   Drizzle
2:35 PM 51.8 °F - 41.0 °F 67% 29.95 in 10.0 mi SSE 8.1 mph - N/A   Light Drizzle
2:55 PM 51.8 °F - 42.8 °F 71% 29.95 in 10.0 mi SSE 4.6 mph - N/A   Drizzle
3:15 PM 51.8 °F - 42.8 °F 71% 29.93 in 10.0 mi SSE 6.9 mph - N/A   Light Drizzle
3:35 PM 51.8 °F - 41.0 °F 67% 29.91 in 10.0 mi SSE 6.9 mph - N/A   Clear
3:55 PM 51.8 °F - 41.0 °F 67% 29.91 in 10.0 mi SSE 4.6 mph - N/A   Clear
4:15 PM 51.8 °F - 41.0 °F 67% 29.91 in 10.0 mi SSW 4.6 mph - N/A   Clear
4:35 PM 51.8 °F - 39.2 °F 62% 29.91 in 10.0 mi South 5.8 mph - N/A   Clear
4:55 PM 51.8 °F - 41.0 °F 67% 29.91 in 10.0 mi South 5.8 mph - N/A Rain Rain
5:15 PM 51.8 °F - 41.0 °F 67% 29.90 in 10.0 mi West 4.6 mph - N/A   Drizzle
5:35 PM 50.0 °F - 42.8 °F 76% 29.90 in 10.0 mi WSW 4.6 mph - N/A Rain Rain
5:55 PM 50.0 °F - 44.6 °F 82% 29.91 in 10.0 mi WSW 4.6 mph - 0.01 in Rain Rain
6:15 PM 50.0 °F - 42.8 °F 76% 29.91 in 10.0 mi SW 4.6 mph - N/A   Drizzle
6:35 PM 48.2 °F - 42.8 °F 82% 29.91 in 10.0 mi SW 4.6 mph - N/A Rain Light Rain
6:55 PM 48.2 °F - 44.6 °F 87% 29.91 in 10.0 mi WSW 4.6 mph - 0.01 in Rain Light Rain
7:15 PM 48.2 °F - 42.8 °F 82% 29.89 in 10.0 mi Calm Calm - N/A   Light Drizzle
7:35 PM 46.4 °F - 44.6 °F 93% 29.87 in 10.0 mi Calm Calm - N/A   Clear
7:55 PM 46.4 °F - 44.6 °F 93% 29.87 in 10.0 mi Calm Calm - N/A   Clear
8:15 PM 46.4 °F - 42.8 °F 87% 29.86 in 10.0 mi Calm Calm - N/A   Clear
8:35 PM 46.4 °F - 42.8 °F 87% 29.86 in 10.0 mi Calm Calm - N/A   Clear
8:55 PM 46.4 °F 45.2 °F 42.8 °F 87% 29.86 in 10.0 mi South 3.5 mph - N/A Rain Light Rain
9:15 PM 46.4 °F - 44.6 °F 93% 29.87 in 10.0 mi Calm Calm - 0.01 in Rain Rain
9:55 PM 46.4 °F - 42.8 °F 87% 29.87 in 10.0 mi Calm Calm - 0.01 in Rain Light Rain
10:15 PM 46.4 °F - 42.8 °F 87% 29.87 in 7.0 mi Calm Calm - 0.01 in Rain Light Rain
10:35 PM 44.6 °F - 44.6 °F 100% 29.86 in 7.0 mi Calm Calm - 0.01 in   Drizzle
10:55 PM 46.4 °F - 44.6 °F 93% 29.86 in 10.0 mi Calm Calm - 0.01 in   Drizzle
11:15 PM 46.4 °F - 42.8 °F 87% 29.86 in 10.0 mi Calm Calm - N/A Rain Rain
11:35 PM 44.6 °F - 44.6 °F 100% 29.86 in 5.0 mi Calm Calm - 0.01 in Rain Light Rain